Regional Weather Roundup
Issued by NWS

Home | Current Version | Previous Version | Text Only | Print | Product List | Glossary On
Versions: 1 2 3 4 5 6 7 8 9 10 11 12 13 14 15 16 17 18 19 20 21 22 23 24 25 26 27 28 29 30 31 32 33 34 35 36 37 38 39 40 41 42 43 44 45 46 47 48 49 50
000
ASUS43 KDMX 301101
RWRIA

WEATHER ROUNDUP FOR IOWA
NATIONAL WEATHER SERVICE DES MOINES IA
600 AM CDT THU MAR 30 2017

NOTE: "FAIR" INDICATES FEW OR NO CLOUDS BELOW 12,000 FEET WITH NO
SIGNIFICANT WEATHER AND/OR OBSTRUCTIONS TO VISIBILITY.

* - THESE STATIONS ARE NOT NWS STATIONS...THUS NOT UNDER NWS
QUALITY CONTROL.  THEY ALSO DO NOT REPORT WEATHER SUCH
AS PRECIPITATION OR FOG.

IAZ001>003-012>014-020>022-031>034-043>046-301200-
   NORTHWEST IOWA

CITY           SKY/WX    TMP DP  RH WIND       PRES   REMARKS
CARROLL *      CLOUDY    41  39  93 NE18      29.72R
CHEROKEE *     CLOUDY    38  38 100 NE9G17    29.79S FOG     WCI  31
DENISON *      CLOUDY    39  39 100 NE16      29.74R FOG     WCI  30
LE MARS *      CLOUDY    39  37  93 NE18      29.82F WCI  30
ORANGE CITY *  CLOUDY    37  37 100 NE10      29.81F WCI  30
SHELDON *      CLOUDY    37  36  93 NE18G24   29.81F WCI  27
SIOUX CITY     CLOUDY    39  38  96 NE12      29.79F WCI  32
SPENCER        CLOUDY    37  36  96 NE21      29.82S WCI  26
STORM LAKE *   CLOUDY    37  37 100 NE24      29.76F FOG     WCI  26
$$

IAZ055>058-069>071-079>083-090>094-301200-
   SOUTHWEST IOWA

CITY           SKY/WX    TMP DP  RH WIND       PRES   REMARKS
ATLANTIC *     CLOUDY    41  41 100 NE14G23   29.68S FOG
AUDUBON *      CLOUDY    39  37  93 NE10G16   29.71R FOG     WCI  32
CLARINDA *     CLOUDY    45  45 100 NE15      29.64F
COUNCIL BLFS * CLOUDY    41  41 100 N16G22    29.68S FOG
CRESTON *      CLOUDY    41  41 100 NE12      29.65R FOG
HARLAN  *      CLOUDY    41  39  93 NE17      29.72S FOG
LAMONI         CLOUDY    44  43  96 E13G22    29.59S
RED OAK *      CLOUDY    43  43 100 NE15G23   29.66F FOG
SHENANDOAH *   CLOUDY    43  43 100 NE16G23   29.65S FOG
$$

IAZ047>049-059>061-072>074-084-301200-
   CENTRAL IOWA

CITY           SKY/WX    TMP DP  RH WIND       PRES   REMARKS
AMES           CLOUDY    41  41 100 NE14G25   29.70F
ANKENY *       CLOUDY    43  39  87 NE18G24   29.68S
BOONE *        CLOUDY    39  39 100 NE22G30   29.68F WCI  29
CHARITON *     CLOUDY    43  43 100 E16G24    29.61F
DES MOINES     CLOUDY    43  40  89 NE13G21   29.66S
GRINNELL*      CLOUDY    41  39  94 E17G25    29.68F
MARSHALLTOWN   CLOUDY    41  40  96 NE21      29.69F
NEWTON *       CLOUDY    41  39  93 NE16G23   29.67R
PELLA *        CLOUDY    42  42  99 E10G20    29.66F
PERRY *        CLOUDY    41  40  95 NE16G23   29.69S
$$

IAZ004>006-015-016-023>025-035-036-301200-
   NORTH CENTRAL IOWA

CITY           SKY/WX    TMP DP  RH WIND       PRES   REMARKS
ALGONA *       CLOUDY    37  37 100 NE18G25   29.80S WCI  27
CLARION *      CLOUDY    37  37 100 NE21      29.75F WCI  27
ESTHERVILLE    CLOUDY    36  36 100 NE20      29.82F WCI  25
FORT DODGE *   CLOUDY    39  36  87 NE14G20   29.75F WCI  31
MASON CITY     CLOUDY    37  35  92 NE20      29.81F FOG     WCI  27
FOREST CITY *  CLOUDY    36  36 100 E14G21    29.81F FOG     WCI  27
WEBSTER CITY * CLOUDY    39  39 100 NE20G25   29.71F WCI  30
IOWA FALLS *   LGT RAIN  40  39  95 NE16G22   29.74F WCI  32
$$

IAZ007>011-017>019-026>030-037>042-050>054-066-301200-
   NORTHEAST IOWA

CITY           SKY/WX    TMP DP  RH WIND       PRES   REMARKS
CEDAR RAPIDS   LGT RAIN  41  41 100 E16G25    29.69F
CHARLES CITY * CLOUDY    37  37 100 E17G25    29.80F WCI  28
CLINTON *      CLOUDY    42  41  96 E22G29    29.72F
DECORAH *      CLOUDY    37  36  93 NE15      29.81F WCI  28
DUBUQUE        CLOUDY    40  38  93 NE14      29.76S WCI  32
MONTICELLO *   CLOUDY    41  39  93 E12       29.75F
OELWEIN *      CLOUDY    39  39 100 E17       29.76F WCI  30
WATERLOO       LGT RAIN  40  38  93 NE16      29.76F WCI  31
$$

IAZ064-065-067-068-078-301200-
   EAST CENTRAL IOWA

CITY           SKY/WX    TMP DP  RH WIND       PRES   REMARKS
DAVENPORT      CLOUDY    43  41  93 E21G30    29.70F
IOWA CITY      LGT RAIN  45  41  86 E14G21    29.71F
MUSCATINE *    LGT RAIN  45  43  93 NE7       29.71F
QUAD CITIES    TSTM      45  41  86 E18G28    29.69F
$$

IAZ062-063-075>077-085>089-095>099-301200-
   SOUTHEAST IOWA

CITY           SKY/WX    TMP DP  RH WIND       PRES   REMARKS
BURLINGTON     RAIN      46  46 100 E14       29.65R FOG
FAIRFIELD *    CLOUDY    43  43 100 E16       29.66R
FORT MADISON * LGT RAIN  46  45  93 NE9       29.64F
KEOKUK *       LGT RAIN  46  46 100 E9        29.63F
OSKALOOSA *    MOCLDY    42  40  96 E15       29.65F
CENTERVILLE *  CLOUDY    43  43 100 NE12G20   29.62F
OTTUMWA        CLOUDY    44  43  96 E16       29.65S
WASHINGTON *   CLOUDY    43  43 100 E13       29.69F
$$

ABBREVIATIONS USED IN REMARKS
   TC - TEMPERATURES IN CELSIUS
  WCI - WIND CHILL INDEX
   HX - HEAT INDEX
  VSB - VISIBILITY
$$




USA.gov is the U.S. government's official web portal to all federal, state and local government web resources and services.